Weather History for Newton, KS

Change the Weather History Date:

Thursday, November 29, 2012

  Actual Average Record
Temperature  
Mean Temperature 48 °F -  
Max Temperature 62 °F 46 °F 68 °F (1998)
Min Temperature 33 °F 30 °F 17 °F (2001)
Degree Days  
Heating Degree Days 18    
Moisture  
Dew Point 36 °F    
Average Humidity 66    
Maximum Humidity 87    
Minimum Humidity 45    
Precipitation  
Precipitation 0.00 in - - ()
Sea Level Pressure  
Sea Level Pressure 30.03 in    
Wind  
Wind Speed 10 mph (South)    
Max Wind Speed 20 mph    
Max Gust Speed 24 mph    
Visibility 10 miles    
Events      
Averages and records for this station are not official NWS values.
T = Trace of Precipitation, MM = Missing Value Source: NWS Daily Summary

Daily Weather History Graph

Daily Weather History Graph

Search for Another Location

Airport:

Trip Planner

Search our weather history database for the weather conditions in past years. The results will help you decide how hot, cold, wet, or windy it might be!

Date:

Astronomy

Nov. 29, 2012 Rise Set
Actual Time 7:25 AM CST 5:10 PM CST
Civil Twilight 6:56 AM CST 5:39 PM CST
Nautical Twilight 6:23 AM CST 6:11 PM CST
Astronomical Twilight 5:51 AM CST 6:43 PM CST
Moon 6:14 PM CST (11/29) 8:12 AM CST (11/29)
Length of Visible Light 10h 42m
Length of Day
9h 45m
Full, 99% of the Moon is Illuminated
Nov 29
Full
Dec 6
Last Quarter
Dec 13
New
Dec 19
First Quarter
Dec 28
Full

Hourly Weather History & Observations

Time (CST) Temp. Windchill Dew Point Humidity Pressure Visibility Wind Dir Wind Speed Gust Speed Precip Events Conditions
12:15 AM 37.4 °F 30.8 °F 30.2 °F 75% 30.12 in 10.0 mi SSE 9.2 mph - N/A   Clear
12:35 AM 37.4 °F 30.8 °F 30.2 °F 75% 30.11 in 10.0 mi SSE 9.2 mph - N/A   Clear
12:55 AM 37.4 °F 30.8 °F 30.2 °F 75% 30.11 in 10.0 mi SSE 9.2 mph - N/A   Clear
1:15 AM 39.2 °F 32.5 °F 30.2 °F 70% 30.10 in 10.0 mi SSE 10.4 mph - N/A   Clear
1:35 AM 39.2 °F 32.0 °F 32.0 °F 75% 30.09 in 10.0 mi SSE 11.5 mph - N/A   Clear
1:55 AM 41.0 °F 34.7 °F 32.0 °F 70% 30.09 in 10.0 mi South 10.4 mph - N/A   Clear
2:15 AM 39.2 °F 32.5 °F 30.2 °F 70% 30.09 in 10.0 mi South 10.4 mph - N/A   Clear
2:35 AM 39.2 °F 33.0 °F 30.2 °F 70% 30.09 in 10.0 mi South 9.2 mph - N/A   Clear
2:55 AM 39.2 °F 32.5 °F 30.2 °F 70% 30.09 in 10.0 mi South 10.4 mph - N/A   Clear
3:35 AM 37.4 °F 31.4 °F 30.2 °F 75% 30.08 in 10.0 mi SSE 8.1 mph - N/A   Clear
3:55 AM 35.6 °F 28.6 °F 30.2 °F 81% 30.08 in 10.0 mi SSE 9.2 mph - N/A   Clear
4:15 AM 37.4 °F 30.8 °F 30.2 °F 75% 30.07 in 10.0 mi SSE 9.2 mph - N/A   Clear
4:35 AM 37.4 °F 30.8 °F 30.2 °F 75% 30.06 in 10.0 mi SSE 9.2 mph - N/A   Clear
4:55 AM 37.4 °F 30.8 °F 30.2 °F 75% 30.06 in 10.0 mi SSE 9.2 mph - N/A   Clear
5:15 AM 35.6 °F 28.0 °F 30.2 °F 81% 30.05 in 10.0 mi SSE 10.4 mph - N/A   Clear
5:35 AM 35.6 °F 29.2 °F 30.2 °F 81% 30.05 in 10.0 mi SSE 8.1 mph - N/A   Clear
5:55 AM 35.6 °F 28.6 °F 28.4 °F 75% 30.05 in 10.0 mi SSE 9.2 mph - N/A   Clear
6:15 AM 33.8 °F 27.0 °F 28.4 °F 81% 30.05 in 10.0 mi SSE 8.1 mph - N/A   Clear
6:35 AM 35.6 °F 29.2 °F 28.4 °F 75% 30.05 in 10.0 mi SSE 8.1 mph - N/A   Clear
6:55 AM 33.8 °F 27.7 °F 28.4 °F 81% 30.05 in 10.0 mi SSE 6.9 mph - N/A   Clear
7:15 AM 33.8 °F 27.0 °F 28.4 °F 81% 30.04 in 10.0 mi SSE 8.1 mph - N/A   Clear
7:35 AM 33.8 °F 27.0 °F 28.4 °F 81% 30.04 in 10.0 mi SSE 8.1 mph - N/A   Clear
7:55 AM 33.8 °F 27.0 °F 30.2 °F 87% 30.04 in 10.0 mi SSE 8.1 mph - N/A   Clear
8:15 AM 37.4 °F 30.3 °F 32.0 °F 81% 30.04 in 10.0 mi South 10.4 mph - N/A   Clear
8:35 AM 39.2 °F 33.0 °F 33.8 °F 81% 30.04 in 10.0 mi SSE 9.2 mph - N/A   Clear
8:55 AM 42.8 °F 37.0 °F 35.6 °F 76% 30.03 in 10.0 mi South 10.4 mph - N/A   Clear
9:15 AM 46.4 °F 40.7 °F 37.4 °F 71% 30.03 in 10.0 mi South 12.7 mph - N/A   Clear
9:35 AM 48.2 °F - 37.4 °F 66% 30.04 in 10.0 mi SSW 18.4 mph - N/A   Clear
9:55 AM 50.0 °F - 37.4 °F 62% 30.04 in 10.0 mi SSW 19.6 mph 24.2 mph N/A   Clear
10:15 AM 51.8 °F - 37.4 °F 58% 30.04 in 10.0 mi SSW 18.4 mph - N/A   Clear
10:35 AM 50.0 °F - 37.4 °F 62% 30.04 in 10.0 mi SSW 13.8 mph - N/A   Clear
10:55 AM 53.6 °F - 39.2 °F 58% 30.04 in 10.0 mi SSW 17.3 mph - N/A   Clear
11:15 AM 53.6 °F - 39.2 °F 58% 30.03 in 10.0 mi SSW 15.0 mph - N/A   Clear
11:35 AM 55.4 °F - 39.2 °F 54% 30.03 in 10.0 mi SSW 13.8 mph - N/A   Clear
11:55 AM 55.4 °F - 39.2 °F 54% 30.02 in 10.0 mi SSW 16.1 mph - N/A   Clear
12:15 PM 57.2 °F - 39.2 °F 51% 30.01 in 10.0 mi SW 16.1 mph 20.7 mph N/A   Clear
12:35 PM 59.0 °F - 39.2 °F 48% 30.01 in 10.0 mi SW 16.1 mph 20.7 mph N/A   Clear
12:55 PM 59.0 °F - 39.2 °F 48% 30.00 in 10.0 mi SSW 18.4 mph - N/A   Clear
1:15 PM 60.8 °F - 39.2 °F 45% 29.99 in 10.0 mi SSW 16.1 mph 20.7 mph N/A   Clear
1:35 PM 60.8 °F - 39.2 °F 45% 29.98 in 10.0 mi SW 13.8 mph - N/A   Clear
1:55 PM 60.8 °F - 41.0 °F 48% 29.97 in 10.0 mi South 16.1 mph 20.7 mph N/A   Clear
2:15 PM 60.8 °F - 39.2 °F 45% 29.97 in 10.0 mi SW 16.1 mph - N/A   Clear
2:35 PM 62.6 °F - 41.0 °F 45% 29.97 in 10.0 mi SSW 15.0 mph 20.7 mph N/A   Clear
2:55 PM 62.6 °F - 41.0 °F 45% 29.97 in 10.0 mi SSW 13.8 mph - N/A   Clear
3:15 PM 62.6 °F - 41.0 °F 45% 29.97 in 10.0 mi SSW 13.8 mph 18.4 mph N/A   Clear
3:35 PM 62.6 °F - 41.0 °F 45% 29.97 in 10.0 mi SSW 11.5 mph - N/A   Clear
3:55 PM 60.8 °F - 42.8 °F 52% 29.97 in 10.0 mi SSW 9.2 mph - N/A   Clear
4:15 PM 60.8 °F - 42.8 °F 52% 29.96 in 10.0 mi South 10.4 mph - N/A   Clear
4:35 PM 59.0 °F - 41.0 °F 51% 29.96 in 10.0 mi South 8.1 mph - N/A   Clear
4:55 PM 55.4 °F - 41.0 °F 58% 29.96 in 10.0 mi South 4.6 mph - N/A   Clear
5:15 PM 55.4 °F - 39.2 °F 54% 29.97 in 10.0 mi South 3.5 mph - N/A   Clear
5:35 PM 53.6 °F - 39.2 °F 58% 29.97 in 10.0 mi South 5.8 mph - N/A   Clear
5:55 PM 51.8 °F - 39.2 °F 62% 29.97 in 10.0 mi South 5.8 mph - N/A   Clear
6:15 PM 51.8 °F - 39.2 °F 62% 29.98 in 10.0 mi South 5.8 mph - N/A   Clear
6:35 PM 51.8 °F - 39.2 °F 62% 29.98 in 10.0 mi South 6.9 mph - N/A   Clear
6:55 PM 51.8 °F - 39.2 °F 62% 29.99 in 10.0 mi South 6.9 mph - N/A   Clear
7:15 PM 50.0 °F - 37.4 °F 62% 29.99 in 10.0 mi South 9.2 mph - N/A   Clear
7:35 PM 48.2 °F - 37.4 °F 66% 29.99 in 10.0 mi South 8.1 mph - N/A   Clear
7:55 PM 48.2 °F - 37.4 °F 66% 29.99 in 10.0 mi South 11.5 mph - N/A   Clear
8:15 PM 48.2 °F - 39.2 °F 71% 29.99 in 10.0 mi South 9.2 mph - N/A   Clear
8:35 PM 50.0 °F - 39.2 °F 66% 30.00 in 10.0 mi SSW 10.4 mph - N/A   Clear
8:55 PM 50.0 °F - 39.2 °F 66% 30.01 in 10.0 mi SSW 9.2 mph - N/A   Clear
9:15 PM 50.0 °F - 39.2 °F 66% 30.02 in 10.0 mi SSW 9.2 mph - N/A   Clear
9:35 PM 50.0 °F - 39.2 °F 66% 30.02 in 10.0 mi SSW 9.2 mph - N/A   Clear
9:55 PM 50.0 °F - 39.2 °F 66% 30.02 in 10.0 mi SSW 9.2 mph - N/A   Clear
10:15 PM 48.2 °F - 39.2 °F 71% 30.03 in 10.0 mi SSW 10.4 mph - N/A   Clear
10:35 PM 48.2 °F - 39.2 °F 71% 30.03 in 10.0 mi SSW 9.2 mph - N/A   Clear
10:55 PM 46.4 °F 41.9 °F 39.2 °F 76% 30.04 in 10.0 mi SSW 9.2 mph - N/A   Clear
11:15 PM 46.4 °F 42.4 °F 39.2 °F 76% 30.03 in 10.0 mi SSW 8.1 mph - N/A   Clear
11:35 PM 46.4 °F 42.9 °F 39.2 °F 76% 30.04 in 10.0 mi SSW 6.9 mph - N/A   Clear
11:55 PM 44.6 °F 39.7 °F 37.4 °F 76% 30.05 in 10.0 mi SSW 9.2 mph - N/A   Clear